sat.trackr.live / text

‹ back to catalog

STARLINK-30422

NORAD 57826 · 2023-138U

PAYLOAD ACTIVE UNKNOWN

§ Identity

Operator
Country
US
Launch date
2023-09-09
Launch site
AFETR
Launch vehicle
Mass (kg)
RCS (m²)

Purposes: comms

External: N2YO · Heavens-Above · Gunter

§ Orbital elements

Epoch: 2026-05-24T18:33:52.427808Z

Period
94.27 min
Inclination
43.0039°
Eccentricity
0.0001924
Mean motion
15.27578068 rev/d
Perigee alt
481.7 km
Apogee alt
484.4 km
Semi-major
6,861.2 km
B*
6.5699e-5
RAAN
164.5560°
Arg perigee
281.1968°
Mean anomaly
78.8667°
Rev number
15,036

§ Raw data

STARLINK-304221 57826U 23138U   26144.77352347  .00001546  00000+0  65699-4 0  99942 57826  43.0039 164.5560 0001924 281.1968  78.8667 15.27578068150363

JSON: /api/v1/satellites/57826 · /tle

For live sub-satellite position, see the globe view (requires WebGL).

§ Visibility from observer

Set your observer location to see the next 7 days of passes ≥ 10°. The values pass through the URL so the page stays shareable.

No JS? Fill the form by hand. The geolocation button needs JavaScript.